Time_in_sec,Mx,My,Mz
1323442138.05350733,-0.54890847,0.04747172,-0.87328857
1323442138.10110521,-0.55008942,0.04529555,-0.87359571
1323442138.15252662,-0.54769343,0.04514183,-0.87294716
1323442138.20101357,-0.54885811,0.04673246,-0.87250811
1323442138.25350928,-0.54922318,0.04622123,-0.86982131
1323442138.30082035,-0.54877245,0.04686133,-0.87327665
1323442138.35286880,-0.54977232,0.04440741,-0.87048227
1323442138.40155435,-0.55108541,0.04687759,-0.87250364
1323442138.45251322,-0.54869795,0.04490137,-0.87222862
1323442138.51354432,-0.54972029,0.04663366,-0.87384236
1323442138.55415058,-0.54927200,0.04637575,-0.87291461
1323442138.60556602,-0.55038691,0.04396737,-0.87437499
1323442138.65351820,-0.54989481,0.04542724,-0.87474442
1323442138.70558596,-0.54877520,0.04722669,-0.87327945
1323442138.75257182,-0.54996717,0.04490740,-0.87152648
1323442138.81353450,-0.54901499,0.04676237,-0.87522030
1323442138.85361290,-0.54905033,0.04589424,-0.87367123
1323442138.90165138,-0.55022371,0.04468950,-0.87372750
1323442138.96069455,-0.54960120,0.04529684,-0.87421232
1323442139.00464106,-0.54978734,0.04343740,-0.87086231
1323442139.05351019,-0.55025351,0.04309066,-0.87217289
1323442139.10549498,-0.54809988,0.04638824,-0.87529570
1323442139.15376568,-0.54929906,0.04601609,-0.87342840
1323442139.20554805,-0.54982471,0.04602192,-0.87345755
1323442139.25355077,-0.55110615,0.04469258,-0.87313271
1323442139.31257820,-0.54898512,0.04675667,-0.87470371
1323442139.35750628,-0.55026925,0.04676555,-0.87425989
1323442139.40451646,-0.55050153,0.04629980,-0.87607157
1323442139.45253563,-0.54834682,0.04626652,-0.87505102
1323442139.51254821,-0.54889035,0.04469484,-0.87558472
1323442139.55438399,-0.54888725,0.04724805,-0.87521672
1323442139.60152078,-0.54920340,0.04640987,-0.87625802
1323442139.65258074,-0.55060756,0.04529995,-0.87349564
1323442139.70144558,-0.54947990,0.04663502,-0.87421525
1323442139.75350928,-0.54940706,0.04686435,-0.87292558
1323442139.80451107,-0.54747826,0.04711736,-0.87578148
1323442139.86153960,-0.55068046,0.04507063,-0.87478536
1323442139.90153909,-0.54969633,0.04604464,-0.87576777
1323442139.95521402,-0.54801810,0.04505854,-0.87631142
1323442140.00219560,-0.54928619,0.04688849,-0.87536496
1323442140.05339766,-0.54871595,0.04492841,-0.87480438
1323442140.10595965,-0.54805696,0.04822780,-0.87659389
1323442140.16451335,-0.54903740,0.04676664,-0.87560773
1323442140.20530772,-0.55128914,0.04521391,-0.87623608
1323442140.25350857,-0.54943371,0.04409602,-0.87599665
1323442140.30596471,-0.54898351,0.04617193,-0.87701648
1323442140.35253000,-0.55089879,0.04375096,-0.87646139
1323442140.40228176,-0.54999739,0.04617646,-0.87642896
1323442140.45367622,-0.54739529,0.04600705,-0.87448162
1323442140.51353788,-0.54827535,0.04690814,-0.87826991
1323442140.55350828,-0.54847372,0.04726359,-0.87712491
1323442140.61316037,-0.54979712,0.04655030,-0.87745041
1323442140.66149831,-0.55007017,0.04434260,-0.87564743
1323442140.70154190,-0.54784924,0.04602282,-0.87553668
1323442140.76467371,-0.54956061,0.04251569,-0.87612104
1323442140.80152488,-0.54988545,0.04518224,-0.87461340
1323442140.85255075,-0.54770708,0.04421876,-0.87783295
1323442140.90464282,-0.54783088,0.04519165,-0.87758934
1323442140.96099043,-0.54892582,0.04445839,-0.87622863
1323442141.01265264,-0.55079412,0.04470388,-0.87453151
1323442141.06150866,-0.54995197,0.04570496,-0.87796783
1323442141.10497665,-0.54789692,0.04542386,-0.87643611
1323442141.15287971,-0.55099487,0.04462055,-0.87801772
1323442141.20150352,-0.54910284,0.04556303,-0.87689000
1323442141.26566458,-0.54808432,0.04592243,-0.87735116
1323442141.30164051,-0.54940099,0.04469782,-0.87535554
1323442141.35354137,-0.54962957,0.04374494,-0.87716353
1323442141.41289186,-0.54889983,0.04557152,-0.87790865
1323442141.46151447,-0.54966575,0.04654884,-0.87744313
1323442141.51267576,-0.54931533,0.04482669,-0.87612408
1323442141.56466508,-0.54888970,0.04680927,-0.87984794
1323442141.60357070,-0.54911894,0.04374196,-0.87739271
1323442141.65252399,-0.54968375,0.04399848,-0.87806946
1323442141.70467639,-0.55010206,0.04522355,-0.87835884
1323442141.76552963,-0.54917186,0.04421489,-0.87598300
1323442141.80568194,-0.55008328,0.04410188,-0.87590390
1323442141.86149144,-0.54973215,0.04546702,-0.87872636
1323442141.91338921,-0.54855686,0.04642819,-0.87866825
1323442141.96157813,-0.54994369,0.04460889,-0.87795949
1323442142.00185919,-0.54995281,0.04422221,-0.87589753
1323442142.06465816,-0.54898107,0.04288800,-0.87737894
1323442142.11353469,-0.55005646,0.04412036,-0.87770474
1323442142.16559744,-0.55010873,0.04413033,-0.87860882
1323442142.21363902,-0.55052525,0.04511184,-0.87889636
1323442142.26181865,-0.54808736,0.04594661,-0.87966865
1323442142.31265354,-0.55069292,0.04436694,-0.87735558
1323442142.36158156,-0.55019271,0.04438957,-0.88003135
1323442142.41353536,-0.54945844,0.04205697,-0.87894410
1323442142.46419978,-0.54986650,0.04388812,-0.87897986
1323442142.51497579,-0.54966575,0.04434490,-0.87773442
1323442142.55352187,-0.54854971,0.04422285,-0.87883013
1323442142.61256909,-0.54866344,0.04546035,-0.88064718
1323442142.66152883,-0.54948497,0.04630291,-0.87889683
1323442142.70144701,-0.55030876,0.04510262,-0.87970597
1323442142.76146984,-0.55006862,0.04375786,-0.87796026
1323442142.81366396,-0.55052996,0.04474790,-0.87902278
1323442142.86487103,-0.54838932,0.04620022,-0.88033080
1323442142.91353822,-0.54913312,0.04425470,-0.87984306
1323442142.96459150,-0.54972678,0.04536799,-0.88091373
1323442143.01284838,-0.54976034,0.04328344,-0.87948453
1323442143.06156921,-0.54872787,0.04536631,-0.88175952
1323442143.11431646,-0.55029613,0.04462890,-0.87952387
1323442143.16533709,-0.54890859,0.04438069,-0.88047516
1323442143.21355700,-0.54974729,0.04352416,-0.87922812
1323442143.26463771,-0.54949951,0.04512863,-0.88154310
1323442143.31351900,-0.54975843,0.04401272,-0.87936097
1323442143.36163211,-0.54950482,0.04522766,-0.87935567
1323442143.41359067,-0.54969800,0.04353837,-0.88064152
1323442143.46152115,-0.54810452,0.04487900,-0.88236523
1323442143.51314855,-0.54901952,0.04364859,-0.88021857
1323442143.56115341,-0.54903066,0.04413716,-0.88035142
1323442143.61356711,-0.55040526,0.04525777,-0.88133663
1323442143.66154552,-0.54881257,0.04511565,-0.88099009
1323442143.71352744,-0.54761147,0.04363969,-0.88078427
1323442143.76102901,-0.55003637,0.04465017,-0.88182676
1323442143.81286550,-0.55031872,0.04268746,-0.88015479
1323442143.86151266,-0.54890859,0.04438069,-0.88047516
1323442143.91257310,-0.54931015,0.04535935,-0.88050443
1323442143.96164966,-0.54795420,0.04472873,-0.87978125
1323442144.01352715,-0.54900748,0.04303825,-0.88008481
1323442144.06464887,-0.54761344,0.04459782,-0.88071156
1323442144.11353278,-0.55055130,0.04403105,-0.88177091
1323442144.16152096,-0.54898220,0.04498763,-0.88169098
1323442144.21288943,-0.54914433,0.04351237,-0.88014495
1323442144.26148701,-0.54854321,0.04594734,-0.88077271
1323442144.31283712,-0.55050975,0.04367317,-0.88107359
1323442144.36161900,-0.54730463,0.04472287,-0.87987399
1323442144.41356587,-0.54981631,0.04378055,-0.88039231
1323442144.46157122,-0.54889846,0.04561846,-0.88241446
1323442144.51375580,-0.54939991,0.04182619,-0.88022649
1323442144.56156230,-0.54756135,0.04521939,-0.88200021
1323442144.61271143,-0.54853582,0.04497329,-0.88076532
1323442144.66150236,-0.54789585,0.04423974,-0.88111073
1323442144.71273685,-0.54822183,0.04410954,-0.87996954
1323442144.76150203,-0.54932785,0.04449642,-0.88093436
1323442144.81357956,-0.55008256,0.04401244,-0.88045782
1323442144.86151218,-0.54867935,0.04487062,-0.88098091
1323442144.91348410,-0.54939687,0.04437940,-0.87985855
1323442144.96551490,-0.55026835,0.04452560,-0.88132381
1323442145.01651931,-0.55063444,0.04316330,-0.87875968
1323442145.06547761,-0.54865319,0.04535206,-0.88046801
1323442145.11351275,-0.54946661,0.04289515,-0.87900001
1323442145.16166043,-0.54815000,0.04606473,-0.88075179
1323442145.21206021,-0.54956460,0.04303541,-0.88067955
1323442145.26451397,-0.54864103,0.04545608,-0.88025981
1323442145.31352615,-0.54970330,0.04240676,-0.87862349
1323442145.36162853,-0.54827309,0.04497037,-0.88075078
1323442145.41276574,-0.54910964,0.04484316,-0.87938040
1323442145.46149158,-0.54831856,0.04544177,-0.87921226
1323442145.51258445,-0.54901201,0.04338916,-0.88013673
1323442145.56150079,-0.54786128,0.04459789,-0.88046789
1323442145.61365128,-0.54895872,0.04423007,-0.87911022
1323442145.66176987,-0.54814708,0.04506793,-0.87855655
1323442145.71354175,-0.54935288,0.04423444,-0.87913203
1323442145.76449394,-0.54891664,0.04555942,-0.87821656
1323442145.81263614,-0.55115104,0.04376068,-0.87858462
1323442145.86150694,-0.54837102,0.04350648,-0.88035953
1323442145.91352868,-0.54891026,0.04373450,-0.87833178
1323442145.96461630,-0.54963672,0.04543359,-0.87709713
1323442146.01751709,-0.55121338,0.04350581,-0.87742788
1323442146.06131792,-0.54944313,0.04471438,-0.87836832
1323442146.11350465,-0.54991561,0.04264322,-0.87773603
1323442146.16152191,-0.54730189,0.04541307,-0.87748265
1323442146.21286249,-0.54914957,0.04458401,-0.87783629
1323442146.26151609,-0.54972357,0.04508541,-0.87864387
1323442146.31353688,-0.55060017,0.04372641,-0.87585115
1323442146.36166382,-0.54978395,0.04555965,-0.87736362
1323442146.41356397,-0.54872274,0.04518131,-0.87717348
1323442146.46149349,-0.55044931,0.04471749,-0.87765175
1323442146.51386237,-0.55032802,0.04445120,-0.87558389
1323442146.56506610,-0.54883635,0.04578728,-0.87679803
1323442146.61306119,-0.55008489,0.04408728,-0.87595397
1323442146.66148973,-0.54948109,0.04518435,-0.87670064
1323442146.71317530,-0.54934514,0.04457411,-0.87668872
1323442146.76106381,-0.54895574,0.04420590,-0.87679327
1323442146.81354833,-0.55204362,0.04155366,-0.87617278
1323442146.86555672,-0.54924732,0.04506538,-0.87720168
1323442146.91353035,-0.54916161,0.04359006,-0.87589931
1323442146.96151853,-0.55017161,0.04471173,-0.87737894
1323442147.01287818,-0.54925740,0.04480054,-0.87514108
1323442147.06150770,-0.54903489,0.04580155,-0.87796742
1323442147.11304736,-0.54924834,0.04421451,-0.87732428
1323442147.16160655,-0.55033398,0.04289538,-0.87814707
1323442147.21352649,-0.54996467,0.04457428,-0.87607950
1323442147.26550317,-0.54914373,0.04516720,-0.87539488
1323442147.31254077,-0.55073625,0.04336403,-0.87598479
1323442147.36476541,-0.54893702,0.04468865,-0.87640959
1323442147.41281056,-0.54814124,0.04565112,-0.87611508
1323442147.46151423,-0.54891819,0.04614404,-0.87590420
1323442147.51261735,-0.54992938,0.04286541,-0.87567914
1323442147.56565189,-0.54755366,0.04298227,-0.87760782
1323442147.61355948,-0.54886454,0.04360420,-0.87755609
1323442147.66080785,-0.54957449,0.04471583,-0.87837559
1323442147.71254182,-0.54978853,0.04456428,-0.87529749
1323442147.76116180,-0.54983032,0.04615281,-0.87582600
1323442147.81284738,-0.54980642,0.04298714,-0.87580192
1323442147.86548901,-0.54873121,0.04433186,-0.87742525
1323442147.91254950,-0.54970676,0.04323489,-0.87631303
1323442147.96556139,-0.55016506,0.04483206,-0.87725073
1323442148.01429677,-0.55034959,0.04336108,-0.87609208
1323442148.06466341,-0.54839110,0.04555360,-0.87818742
1323442148.11388946,-0.54915863,0.04517005,-0.87565309
1323442148.16554809,-0.54863340,0.04482313,-0.87793821
1323442148.21353722,-0.54756844,0.04493038,-0.87762266
1323442148.26152992,-0.54937971,0.04421596,-0.87733155
1323442148.31258821,-0.54960787,0.04457702,-0.87670332
1323442148.36549544,-0.54785359,0.04493757,-0.87802458
1323442148.41364956,-0.54712027,0.04369990,-0.87681681
1323442148.46149993,-0.54980373,0.04583019,-0.87994069
1323442148.51351142,-0.54976380,0.04190838,-0.87746495
1323442148.56151414,-0.54790109,0.04531138,-0.87880212
1323442148.61356020,-0.54800004,0.04299661,-0.87853354
1323442148.66151953,-0.54937518,0.04521134,-0.87939769
1323442148.71267581,-0.54988778,0.04351257,-0.87941384
1323442148.76549196,-0.54836529,0.04472120,-0.88011056
1323442148.81367373,-0.55018592,0.04425172,-0.87995046
1323442148.86464429,-0.54704595,0.04494872,-0.87991053
1323442148.91351223,-0.54971999,0.04362575,-0.87876189
1323442148.96155953,-0.54943681,0.04449361,-0.88055426
1323442149.01256561,-0.54890031,0.04302670,-0.88051403
1323442149.06149125,-0.54870337,0.04520121,-0.87910306
1323442149.11256433,-0.54958588,0.04486318,-0.88082260
1323442149.16524863,-0.54831511,0.04461365,-0.88152272
1323442149.21355104,-0.54933071,0.04388906,-0.88105887
1323442149.26150346,-0.54871106,0.04486153,-0.88154638
1323442149.31352425,-0.54863185,0.04423851,-0.88025051
1323442149.36129594,-0.54881084,0.04364115,-0.88115704
1323442149.41284871,-0.54872251,0.04243209,-0.88204437
1323442149.46150637,-0.54777920,0.04618639,-0.88111830
1323442149.51252627,-0.54891616,0.04315131,-0.88077325
1323442149.56506658,-0.54875499,0.04474832,-0.88232023
1323442149.61705995,-0.54715139,0.04509041,-0.88171917
1323442149.66506314,-0.54870474,0.04303661,-0.88166159
1323442149.71348667,-0.54971075,0.04498497,-0.88070166
1323442149.76097226,-0.54954123,0.04548617,-0.88224030
1323442149.81251740,-0.55003130,0.04315161,-0.87967658
1323442149.86151338,-0.54926354,0.04387625,-0.87989676
1323442149.91265011,-0.54821819,0.04362251,-0.87996578
1323442149.96451616,-0.54840517,0.04703885,-0.88051552
1323442150.01268625,-0.54863352,0.04385049,-0.87805986
1323442150.06453371,-0.54777837,0.04509200,-0.88123906
1323442150.11350822,-0.55000705,0.04290382,-0.87928736
1323442150.16080093,-0.54971069,0.04338082,-0.87863088
1323442150.21276617,-0.54939765,0.04424298,-0.87990677
1323442150.26149106,-0.54968995,0.04716948,-0.88007271
1323442150.31252694,-0.54996878,0.04277495,-0.87864083
1323442150.36149192,-0.54972726,0.04557243,-0.87864757
1323442150.40151024,-0.54897267,0.04508379,-0.87924582
1323442150.46153426,-0.54926145,0.04397384,-0.87758070
1323442150.51256466,-0.54877025,0.04395096,-0.87588024
1323442150.56077361,-0.54883087,0.04666090,-0.87886322
1323442150.60167503,-0.54935080,0.04593618,-0.87888676
1323442150.66150784,-0.54947019,0.04275064,-0.87681127
1323442150.71352291,-0.55027956,0.04555979,-0.87687624
1323442150.75355053,-0.54870808,0.04483736,-0.87922943
1323442150.80661249,-0.54908323,0.04566558,-0.87655342
1323442150.86466265,-0.55037665,0.04557829,-0.87855482
1323442150.90467453,-0.54898256,0.04676421,-0.87694186
1323442150.96154404,-0.54895002,0.04542062,-0.87654430
1323442151.00644350,-0.54878783,0.04529171,-0.87601960
1323442151.06152630,-0.54941612,0.04410132,-0.87797630
1323442151.10157394,-0.54799974,0.04591450,-0.87816840
1323442151.16464067,-0.54896426,0.04496061,-0.87911576
1323442151.20359206,-0.54997033,0.04593635,-0.87827754
1323442151.25252366,-0.54978585,0.04322638,-0.87541640
1323442151.30453062,-0.54933679,0.04605509,-0.87862945
1323442151.35352063,-0.55080426,0.04447123,-0.87702608
1323442151.40456820,-0.54881877,0.04605069,-0.87872946
1323442151.46136928,-0.55027491,0.04752779,-0.87882066
1323442151.50452375,-0.55139589,0.04534074,-0.87809467
1323442151.55258608,-0.54929483,0.04383503,-0.87590843
1323442151.60137439,-0.54888016,0.04825085,-0.87952089
1323442151.65259004,-0.54839575,0.04616238,-0.87819207
1323442151.70597219,-0.54938263,0.04521276,-0.87952685
1323442151.75252914,-0.54979151,0.04458845,-0.87761444
1323442151.80151844,-0.54916334,0.04898715,-0.87979925
1323442151.85352540,-0.54958189,0.04311310,-0.87643391
1323442151.90127802,-0.54731411,0.04665481,-0.87980890
1323442151.96457148,-0.54978228,0.04594767,-0.87955421
1323442152.00531650,-0.54915595,0.04640894,-0.87772107
1323442152.05336213,-0.55062282,0.04338959,-0.87855273
1323442152.10126829,-0.54968810,0.04692596,-0.88007087
1323442152.15353465,-0.55079490,0.04680308,-0.87884420
1323442152.20561719,-0.54826647,0.04606334,-0.88050085
1323442152.25351214,-0.55147076,0.04340972,-0.87962937
1323442152.31265306,-0.54814726,0.04569946,-0.88074905
1323442152.35265446,-0.54783112,0.04751008,-0.87958628
1323442152.40494585,-0.54943109,0.04570833,-0.88030529
1323442152.45251918,-0.54896063,0.04607774,-0.88118285
1323442152.50462532,-0.54924107,0.04644877,-0.88145840
1323442152.56156564,-0.54982883,0.04459557,-0.87826008
1323442152.60159326,-0.54925954,0.04630711,-0.87952793
1323442152.65351248,-0.54788172,0.04533128,-0.88073170
1323442152.70097136,-0.54948437,0.04486742,-0.88133180
1323442152.75267029,-0.55031163,0.04449527,-0.87983048
1323442152.80094862,-0.54824042,0.04717620,-0.88218051
1323442152.85257363,-0.54938817,0.04336651,-0.87758332
1323442152.90566707,-0.54988402,0.04560233,-0.88135922
1323442152.96095371,-0.54817510,0.04740690,-0.88102025
1323442153.00169039,-0.54879099,0.04594741,-0.88052905
1323442153.05351424,-0.55127513,0.04439225,-0.88065523
1323442153.10084653,-0.54867864,0.04512209,-0.88321960
1323442153.15254807,-0.54883111,0.04631980,-0.88117743
1323442153.20150828,-0.54946595,0.04500908,-0.88326234
1323442153.25254178,-0.54915714,0.04618960,-0.88003618
1323442153.30095005,-0.54781079,0.04740823,-0.88151491
1323442153.36082339,-0.55026960,0.04485199,-0.87905848
1323442153.40087175,-0.55035293,0.04464831,-0.88279396
1323442153.45350885,-0.54800487,0.04584108,-0.88280141
1323442153.50154543,-0.54787695,0.04666775,-0.88048363
1323442153.55273867,-0.54928780,0.04572820,-0.88235676
1323442153.60150003,-0.54785931,0.04790379,-0.88229340
1323442153.65367079,-0.54932958,0.04571257,-0.88081449
1323442153.70066857,-0.54834205,0.04619933,-0.88179302
1323442153.75351334,-0.54830289,0.04594870,-0.88114554
1323442153.80539584,-0.54738885,0.04569642,-0.88122189
1323442153.85351014,-0.55089581,0.04375919,-0.87869918
1323442153.90555644,-0.54949272,0.04756739,-0.88341093
1323442153.95254064,-0.54868573,0.04643725,-0.88091284
1323442154.00152802,-0.54897273,0.04668795,-0.88131660
1323442154.05351067,-0.55041480,0.04667980,-0.87907970
1323442154.10456634,-0.54872948,0.04729667,-0.88156492
1323442154.15253758,-0.55054921,0.04412864,-0.87945485
1323442154.20364642,-0.54970032,0.04656354,-0.88032633
1323442154.25344253,-0.54900700,0.04506674,-0.87757450
1323442154.30546832,-0.54769230,0.04750720,-0.87944984
1323442154.35354519,-0.54999191,0.04484623,-0.87878567
1323442154.40149069,-0.54712325,0.04630086,-0.88108283
1323442154.45353985,-0.55010474,0.04596197,-0.88060176
1323442154.50176096,-0.55051643,0.04730709,-0.88076293
1323442154.56150985,-0.54891741,0.04665381,-0.87809575
1323442154.60150623,-0.54996866,0.04632436,-0.88046819
1323442154.65350652,-0.54982901,0.04522710,-0.88045257
1323442154.70155072,-0.54901356,0.04655056,-0.87977344
1323442154.75251389,-0.55036551,0.04508984,-0.87842202
1323442154.81327629,-0.54899764,0.04739859,-0.87939256
1323442154.85355997,-0.54835469,0.04824502,-0.87949181
1323442154.90156317,-0.54758090,0.04583102,-0.88226306
1323442154.95351338,-0.54837644,0.04520965,-0.88024336
1323442155.00152922,-0.54763621,0.04798284,-0.87842059
1323442155.05351329,-0.54889327,0.04543339,-0.87782824
1323442155.10126996,-0.54857916,0.04811906,-0.87885982
1323442155.15252709,-0.54968709,0.04777683,-0.87994826
1323442155.20152259,-0.54796165,0.04641715,-0.87971431
1323442155.25256300,-0.54889709,0.04494779,-0.87795365
1323442155.30156541,-0.55115092,0.04731010,-0.88041192
1323442155.36458707,-0.55049676,0.04606393,-0.87830758
1323442155.40164208,-0.54852825,0.04594449,-0.88051444
1323442155.45352268,-0.55041027,0.04509839,-0.87919676
1323442155.50502872,-0.54981399,0.04619688,-0.88007259
1323442155.55265069,-0.54757577,0.04590444,-0.87763005
1323442155.60149026,-0.54877114,0.04664951,-0.87783021
1323442155.65251327,-0.54940587,0.04631142,-0.87979341
1323442155.70165372,-0.54964632,0.04533743,-0.87954235
1323442155.75367546,-0.55014271,0.04482779,-0.87686336
1323442155.80166936,-0.54994810,0.04656361,-0.88008267
1323442155.85287023,-0.54921663,0.04396529,-0.87680596
1323442155.90149283,-0.54973489,0.04620539,-0.88096917
1323442155.95287991,-0.54938060,0.04691451,-0.87928158
